<?xml version="1.0"?>
<gpx xmlns="http://www.topografix.com/GPX/1/1" xmlns:xsi="http://www.w3.org/2001/XMLSchema-instance" version="1.1" creator="GPX RubyGem 1.0.0 -- http://dougfales.github.io/gpx/" xsi:schemaLocation="http://www.topografix.com/GPX/1/1 http://www.topografix.com/GPX/1/1/gpx.xsd">
  <metadata>
    <name/>
    <time>2026-05-10T16:27:27+00:00</time>
    <bound minlat="90.0" minlon="180.0" maxlat="-90.0" maxlon="-180.0"/>
  </metadata>
  <trk>
    <name/>
    <trkseg>
      <trkpt lat="50.919543" lon="14.157784">
        <time>1970-01-01T00:00:00+00:00</time>
        <ele>134.0</ele>
      </trkpt>
      <trkpt lat="50.919506" lon="14.157894">
        <time>1970-01-01T00:00:00+00:00</time>
        <ele>137.0</ele>
      </trkpt>
      <trkpt lat="50.91928" lon="14.157706">
        <time>1970-01-01T00:00:00+00:00</time>
        <ele>138.0</ele>
      </trkpt>
      <trkpt lat="50.919067" lon="14.157512">
        <time>1970-01-01T00:00:00+00:00</time>
        <ele>136.0</ele>
      </trkpt>
      <trkpt lat="50.918817" lon="14.157285">
        <time>1970-01-01T00:00:00+00:00</time>
        <ele>137.0</ele>
      </trkpt>
      <trkpt lat="50.918475" lon="14.156978">
        <time>1970-01-01T00:00:00+00:00</time>
        <ele>135.0</ele>
      </trkpt>
      <trkpt lat="50.918345" lon="14.156869">
        <time>1970-01-01T00:00:00+00:00</time>
        <ele>132.0</ele>
      </trkpt>
      <trkpt lat="50.918252" lon="14.157163">
        <time>1970-01-01T00:00:00+00:00</time>
        <ele>149.0</ele>
      </trkpt>
      <trkpt lat="50.918187" lon="14.15713">
        <time>1970-01-01T00:00:00+00:00</time>
        <ele>148.0</ele>
      </trkpt>
      <trkpt lat="50.918166" lon="14.157203">
        <time>1970-01-01T00:00:00+00:00</time>
        <ele>152.0</ele>
      </trkpt>
      <trkpt lat="50.918314" lon="14.15745">
        <time>1970-01-01T00:00:00+00:00</time>
        <ele>162.0</ele>
      </trkpt>
      <trkpt lat="50.918341" lon="14.157586">
        <time>1970-01-01T00:00:00+00:00</time>
        <ele>168.0</ele>
      </trkpt>
      <trkpt lat="50.918103" lon="14.157395">
        <time>1970-01-01T00:00:00+00:00</time>
        <ele>163.0</ele>
      </trkpt>
      <trkpt lat="50.918012" lon="14.157365">
        <time>1970-01-01T00:00:00+00:00</time>
        <ele>161.0</ele>
      </trkpt>
      <trkpt lat="50.917938" lon="14.157395">
        <time>1970-01-01T00:00:00+00:00</time>
        <ele>162.0</ele>
      </trkpt>
      <trkpt lat="50.917835" lon="14.157502">
        <time>1970-01-01T00:00:00+00:00</time>
        <ele>162.0</ele>
      </trkpt>
      <trkpt lat="50.917754" lon="14.157471">
        <time>1970-01-01T00:00:00+00:00</time>
        <ele>156.0</ele>
      </trkpt>
      <trkpt lat="50.917698" lon="14.157431">
        <time>1970-01-01T00:00:00+00:00</time>
        <ele>151.0</ele>
      </trkpt>
      <trkpt lat="50.917657" lon="14.157432">
        <time>1970-01-01T00:00:00+00:00</time>
        <ele>148.0</ele>
      </trkpt>
      <trkpt lat="50.917657" lon="14.157432">
        <time>1970-01-01T00:00:00+00:00</time>
        <ele>148.0</ele>
      </trkpt>
      <trkpt lat="50.917698" lon="14.157431">
        <time>1970-01-01T00:00:00+00:00</time>
        <ele>151.0</ele>
      </trkpt>
      <trkpt lat="50.917754" lon="14.157471">
        <time>1970-01-01T00:00:00+00:00</time>
        <ele>156.0</ele>
      </trkpt>
      <trkpt lat="50.917835" lon="14.157502">
        <time>1970-01-01T00:00:00+00:00</time>
        <ele>162.0</ele>
      </trkpt>
      <trkpt lat="50.917938" lon="14.157395">
        <time>1970-01-01T00:00:00+00:00</time>
        <ele>162.0</ele>
      </trkpt>
      <trkpt lat="50.918012" lon="14.157365">
        <time>1970-01-01T00:00:00+00:00</time>
        <ele>161.0</ele>
      </trkpt>
      <trkpt lat="50.918103" lon="14.157395">
        <time>1970-01-01T00:00:00+00:00</time>
        <ele>163.0</ele>
      </trkpt>
      <trkpt lat="50.918341" lon="14.157586">
        <time>1970-01-01T00:00:00+00:00</time>
        <ele>168.0</ele>
      </trkpt>
      <trkpt lat="50.918314" lon="14.15745">
        <time>1970-01-01T00:00:00+00:00</time>
        <ele>162.0</ele>
      </trkpt>
      <trkpt lat="50.918166" lon="14.157203">
        <time>1970-01-01T00:00:00+00:00</time>
        <ele>152.0</ele>
      </trkpt>
      <trkpt lat="50.918187" lon="14.15713">
        <time>1970-01-01T00:00:00+00:00</time>
        <ele>148.0</ele>
      </trkpt>
      <trkpt lat="50.918252" lon="14.157163">
        <time>1970-01-01T00:00:00+00:00</time>
        <ele>149.0</ele>
      </trkpt>
      <trkpt lat="50.918345" lon="14.156869">
        <time>1970-01-01T00:00:00+00:00</time>
        <ele>132.0</ele>
      </trkpt>
      <trkpt lat="50.918475" lon="14.156978">
        <time>1970-01-01T00:00:00+00:00</time>
        <ele>135.0</ele>
      </trkpt>
      <trkpt lat="50.918817" lon="14.157285">
        <time>1970-01-01T00:00:00+00:00</time>
        <ele>137.0</ele>
      </trkpt>
      <trkpt lat="50.919067" lon="14.157512">
        <time>1970-01-01T00:00:00+00:00</time>
        <ele>136.0</ele>
      </trkpt>
      <trkpt lat="50.91928" lon="14.157706">
        <time>1970-01-01T00:00:00+00:00</time>
        <ele>138.0</ele>
      </trkpt>
      <trkpt lat="50.919506" lon="14.157894">
        <time>1970-01-01T00:00:00+00:00</time>
        <ele>137.0</ele>
      </trkpt>
      <trkpt lat="50.919543" lon="14.157784">
        <time>1970-01-01T00:00:00+00:00</time>
        <ele>134.0</ele>
      </trkpt>
    </trkseg>
  </trk>
</gpx>
